FW3867 Weather Reports


Display with metric or nautical units.
time (UTC)temp
F
wind
direction
speed
MPH
gust
MPH
rain 1hr
in
rain 24hr
in
rain mn
in
humidity
%
barometer
mb
20260506013059 47 27 10.0 15.0 0.00 0.15 0.15 89 1009.4
20260506011558 48 28 12.0 18.0 0.00 0.15 0.15 89 1009.3
20260506010054 48 9 11.0 18.0 0.00 0.15 0.15 89 1009.1
20260506004555 51 28 13.0 19.0 0.00 0.15 0.15 89 1008.6
20260506003044 54 28 12.0 18.0 0.00 0.15 0.15 87 1008.2
20260506001604 57 28 10.0 18.0 0.00 0.15 0.15 85 1007.9
20260506000047 58 17 9.0 16.0 0.00 0.15 0.15 85 1008.2
20260505234548 59 19 5.0 11.0 0.00 0.15 0.15 85 1007.9
20260505233037 61 28 8.0 13.0 0.00 0.15 0.15 82 1007.3
20260505231534 64 345 2.0 8.0 0.00 0.15 0.15 70 1006.7
20260505230036 64 280 4.0 11.0 0.00 0.15 0.15 71 1006.5
20260505224537 65 282 7.0 13.0 0.00 0.15 0.15 71 1006.6
20260505223039 66 236 11.0 25.0 0.00 0.15 0.15 69 1006.5
20260505221527 69 209 9.0 18.0 0.00 0.15 0.15 57 1005.9
20260505220035 69 267 9.0 18.0 0.00 0.15 0.15 56 1005.8
20260505214544 69 261 12.0 19.0 0.00 0.15 0.15 56 1005.7
20260505213038 70 254 10.0 20.0 0.00 0.15 0.15 54 1005.6
20260505211521 70 265 14.0 24.0 0.00 0.15 0.15 56 1005.3
20260505210020 70 283 10.0 23.0 0.00 0.15 0.15 58 1005.2
20260505204527 69 219 15.0 31.0 0.00 0.15 0.15 60 1005.3
20260505203119 69 278 10.0 27.0 0.00 0.15 0.15 64 1005.4
20260505201554 69 264 17.0 28.0 0.00 0.15 0.15 64 1005.6
20260505200048 68 268 17.0 32.0 0.00 0.15 0.15 64 1005.7
20260505194543 66 236 13.0 27.0 0.00 0.15 0.15 70 1005.8
20260505193048 66 248 12.0 19.0 0.00 0.15 0.15 73 1005.8
20260505191550 65 224 13.0 19.0 0.04 0.15 0.15 74 1005.9
20260505190046 65 245 12.0 21.0 0.10 0.15 0.15 75 1006.1
20260505184537 66 280 4.0 10.0 0.15 0.15 0.15 74 1005.8
20260505183047 65 280 4.0 9.0 0.15 0.15 0.15 78 1005.6
20260505181535 63 325 5.0 10.0 0.11 0.11 0.11 78 1005.2
20260505180040 63 274 13.0 27.0 0.04 0.04 0.04 71 1005.8
20260505174537 69 248 10.0 19.0 0.00 0.00 0.00 62 1005.4
20260505173037 70 248 9.0 25.0 0.00 0.00 0.00 56 1005.3
20260505171533 70 240 12.0 22.0 0.00 0.00 0.00 56 1005.6
20260505170026 69 232 12.0 22.0 0.00 0.00 0.00 56 1005.8
20260505164533 68 240 14.0 31.0 0.00 0.00 0.00 56 1005.8
20260505163024 69 225 15.0 23.0 0.00 0.00 0.00 55 1005.9
20260505161521 69 238 13.0 24.0 0.00 0.00 0.00 55 1005.3
20260505153103 69 257 16.0 37.0 0.00 0.00 0.00 56 1005.8
20260505151546 69 261 12.0 36.0 0.00 0.00 0.00 57 1005.8
20260505124515 62 227 13.0 24.0 0.00 0.00 0.00 71 1005.6
20260505123011 61 242 17.0 25.0 0.00 0.00 0.00 72 1005.7
20260505121510 60 225 11.0 25.0 0.00 0.00 0.00 74 1006.0
20260505120008 60 219 13.0 22.0 0.00 0.00 0.00 75 1006.1
20260505114506 59 207 12.0 18.0 0.00 0.00 0.00 78 1006.0
20260505113008 58 209 10.0 17.0 0.00 0.00 0.00 80 1006.0
20260505111536 57 255 13.0 20.0 0.00 0.00 0.00 83 1005.9
20260505101529 56 227 11.0 18.0 0.00 0.00 0.00 85 1005.1
20260505100031 56 232 15.0 21.0 0.00 0.00 0.00 85 1005.1
20260505094604 56 222 14.0 25.0 0.00 0.00 0.00 84 1005.1
20260505093055 58 220 20.0 39.0 0.00 0.00 0.00 77 1005.1
20260505091549 61 271 20.0 30.0 0.00 0.00 0.00 68 1005.7
20260505090053 60 223 13.0 25.0 0.00 0.00 0.00 70 1005.4
20260505084545 59 237 15.0 23.0 0.00 0.00 0.00 71 1005.4
20260505083043 59 223 16.0 19.0 0.00 0.00 0.00 71 1005.1
20260505081545 58 215 10.0 17.0 0.00 0.00 0.00 71 1005.0
20260505080049 59 211 10.0 16.0 0.00 0.00 0.00 70 1005.1
20260505074533 59 231 11.0 17.0 0.00 0.00 0.00 69 1005.3
20260505073044 60 234 11.0 16.0 0.00 0.00 0.00 68 1005.3
20260505071529 60 225 13.0 20.0 0.00 0.00 0.00 68 1005.2
20260505070027 60 230 11.0 17.0 0.00 0.00 0.00 67 1005.3
20260505064525 60 231 13.0 18.0 0.00 0.00 0.00 68 1005.4
20260505063023 60 239 12.0 19.0 0.00 0.00 0.00 67 1005.4
20260505061521 60 236 13.0 20.0 0.00 0.00 0.00 67 1005.6
20260505060023 60 232 12.0 20.0 0.00 0.00 0.00 66 1005.6
20260505054512 60 223 11.0 17.0 0.00 0.00 0.00 66 1005.7
20260505053016 61 230 11.0 18.0 0.00 0.00 0.00 65 1005.8
20260505051508 61 254 10.0 16.0 0.00 0.00 0.00 64 1006.0
20260505050116 61 234 10.0 17.0 0.00 0.00 0.00 64 1006.0
20260505041547 61 238 11.0 16.0 0.00 0.00 0.00 61 1006.1
20260505040030 61 234 10.0 15.0 0.00 0.00 0.00 58 1006.0
20260505034529 62 240 10.0 15.0 0.00 0.00 0.00 56 1006.0
20260505033027 62 232 12.0 18.0 0.00 0.00 0.00 54 1005.7
20260505031527 61 237 11.0 16.0 0.00 0.00 0.00 52 1006.0
20260505030034 60 223 8.0 12.0 0.00 0.00 0.00 53 1006.0
20260505024528 61 213 6.0 10.0 0.00 0.00 0.00 51 1006.1
20260505023028 62 221 9.0 12.0 0.00 0.00 0.00 49 1006.2
20260505021526 63 229 9.0 12.0 0.00 0.00 0.00 47 1006.3
20260505020021 64 222 10.0 14.0 0.00 0.00 0.00 46 1006.3
20260505014522 64 232 10.0 18.0 0.00 0.00 0.00 44 1006.4